[[{"header":{"parameterUnit":"m.s-1","parameterCategory":1,"la1":30.2991,"la2":30.254,"lo1":-89.0895,"lo2":-89.0444,"dy":0.0017,"dx":0.0017,"nx":28,"ny":28,"refTime":"2025-03-31T09:00:00:Z","depth":0,"parameterNumber":2,"parameterNumberName":"U-component_of_WINDS"},"data":[0,0,0,0,0,0,0,0,0,0,0,0,0,0,0,0,0,0,0,0,0,0,0,0,0,0,0,0,0,0,0,0,0,0,0,0,0,0,0,0,0,0,0,0,0,0,0,0,0,0,0,0,0,0,0,0,0,0,0.4045,0.4045,0,0.4038,0.4038,0.4038,0.4029,0.4028,0.4028,0.4028,0.4022,0.4022,0.4022,0,0,0,0,0,0,0,0,0,0,0,0,0,0.4049,0.4049,0.4045,0.4045,0.4045,0.4038,0.4038,0.4038,0.4029,0.4028,0.4028,0.4028,0.4022,0.4022,0.4022,0,0,0,0,0,0,0,0,0,0,0,0,0,0.4045,0.4049,0.4045,0.4039,0.4038,0.4038,0.4038,0.4038,0.4029,0.4028,0.4028,0.4028,0.4022,0.4022,0.4022,0.4027,0,0,0.4022,0.4022,0,0,0,0,0,0,0,0,0.4046,0.4045,0.404,0.4039,0.4039,0.4034,0.4037,0.4034,0.4029,0.4032,0.4028,0.4028,0.4026,0.4026,0.4025,0.4027,0.4026,0.4022,0.4022,0.4022,0.4022,0,0,0,0,0,0,0,0.4046,0.4045,0.4042,0.404,0.4039,0.4037,0.4036,0.4037,0.4031,0.4032,0.4031,0.4031,0.4026,0.4025,0.4025,0.4026,0.4022,0.4022,0.4022,0.4022,0.4031,0.4032,0,0,0,0,0,0,0.4047,0.4046,0.4042,0.4042,0.4042,0.4037,0.4036,0.4036,0.4031,0.403,0.4031,0.403,0.4025,0.4025,0.4025,0.403,0.4022,0.4022,0.4022,0.4031,0.4031,0.4032,0,0,0,0,0,0,0.4047,0.4047,0.4043,0.4044,0.4043,0.4037,0.4037,0.4036,0.4035,0.403,0.4029,0.4031,0.4025,0.4025,0.4026,0.403,0.4022,0.4022,0.4031,0.4031,0.4032,0.4042,0,0,0,0,0,0,0.4047,0.4047,0.4049,0.4044,0.4043,0.4044,0.4037,0.4036,0.4035,0.4034,0.403,0.4029,0.4025,0.4026,0.4026,0.403,0.4022,0.4031,0.4031,0.4032,0.4041,0.4042,0.4043,0,0,0,0,0,0.4047,0.4052,0.4049,0.4048,0.4045,0.4045,0.4044,0.4039,0.4035,0.4037,0.4034,0.4029,0.4029,0.4027,0.4027,0.403,0.403,0.4031,0.4031,0.404,0.4042,0.4043,0,0,0,0,0,0,0.4057,0.4051,0.4048,0.4051,0.4048,0.4043,0.4045,0.4041,0.404,0.4039,0.4033,0.4032,0.4035,0.4032,0.4029,0.4035,0.4029,0.403,0.4036,0.4038,0.4039,0.4039,0.4022,0,0,0,0,0,0.406,0.406,0.4054,0.4058,0.4056,0.4051,0.4051,0.4047,0.4044,0.4043,0.404,0.4038,0.4037,0.4037,0.4036,0.404,0.4039,0.4043,0.4044,0.4045,0.4046,0.4048,0.4049,0.4034,0.4034,0.4034,0,0,0.4065,0.4062,0.4062,0.4059,0.4057,0.4058,0.405,0.4051,0.4051,0.4043,0.4045,0.4042,0.4039,0.4042,0.4043,0.4041,0.405,0.4046,0.4047,0.4047,0.4048,0.405,0.4051,0.4034,0.4034,0.4034,0,0,0.4075,0.4072,0.4075,0.4072,0.4069,0.4065,0.4066,0.4061,0.4059,0.4061,0.4055,0.4055,0.4054,0.4052,0.4051,0.406,0.4056,0.406,0.4067,0.4069,0.407,0.4071,0.4075,0.4076,0.4061,0.4061,0.4061,0,0.4082,0.4082,0.4076,0.4078,0.4077,0.4069,0.4072,0.407,0.4066,0.4066,0.4063,0.4062,0.4059,0.4061,0.4064,0.4063,0.4063,0.4061,0.407,0.4071,0.4072,0.4076,0.4077,0.4061,0.4061,0.4061,0.4061,0,0.4091,0.4092,0.4094,0.4091,0.409,0.4092,0.4086,0.4086,0.4082,0.4079,0.408,0.4077,0.4075,0.4075,0.4072,0.4077,0.4076,0.4071,0.4066,0.4074,0.4077,0.4079,0.4062,0.4062,0.4062,0.4062,0,0,0.4108,0.4101,0.4102,0.4101,0.4096,0.4096,0.4098,0.4096,0.4096,0.4094,0.4095,0.4094,0.409,0.4089,0.4085,0.4087,0.4095,0.4083,0.4082,0.4085,0.4101,0.4104,0.4106,0.4091,0.4092,0.4092,0.4101,0,0.4117,0.4119,0.4114,0.4117,0.4117,0.411,0.4111,0.4109,0.4106,0.4105,0.4102,0.4102,0.4096,0.4095,0.4097,0.4093,0.4098,0.4092,0.4093,0.4093,0.4094,0.4107,0.4111,0.412,0.4102,0.4102,0.4103,0,0.4129,0.4127,0.413,0.4126,0.4126,0.4127,0.4125,0.4124,0.4121,0.4119,0.4117,0.4113,0.4114,0.4108,0.411,0.4106,0.4106,0.4104,0.4104,0.4105,0.4099,0.4109,0.4123,0.4124,0.4104,0.4104,0.4104,0,0.4141,0.414,0.4141,0.414,0.4135,0.4136,0.4133,0.413,0.4129,0.4127,0.4127,0.4125,0.4125,0.4124,0.4118,0.4115,0.4121,0.4115,0.4119,0.4119,0.4121,0.4121,0.4136,0.412,0.412,0.412,0.412,0,0.4153,0.4155,0.4147,0.4148,0.4151,0.4144,0.4147,0.4144,0.4141,0.4141,0.4135,0.4135,0.4128,0.4128,0.4124,0.4126,0.4126,0.4124,0.4123,0.4125,0.4125,0.4125,0.4125,0.412,0.412,0.412,0.412,0,0.4167,0.4162,0.4163,0.4158,0.4156,0.4158,0.4154,0.4154,0.4151,0.4151,0.4151,0.4145,0.4145,0.414,0.4138,0.4135,0.4139,0.4137,0.414,0.414,0.4145,0.4144,0.416,0.4162,0.4145,0.4145,0.4145,0,0.4175,0.4177,0.4171,0.4171,0.4169,0.4169,0.4168,0.4162,0.4161,0.4157,0.4159,0.4158,0.4157,0.4156,0.4152,0.4151,0.4149,0.4154,0.4148,0.415,0.4149,0.415,0.415,0.4156,0.4156,0.4156,0.4156,0,0.419,0.4187,0.4186,0.4184,0.4183,0.4182,0.4179,0.418,0.4173,0.4172,0.4172,0.4171,0.4169,0.4168,0.4166,0.4164,0.4159,0.4158,0.4159,0.4162,0.4164,0.4163,0.4144,0.4158,0.4158,0.4158,0.4158,0.4158,0.4201,0.4203,0.4199,0.4198,0.4196,0.4194,0.4195,0.4191,0.419,0.4188,0.4184,0.4184,0.4181,0.4178,0.4176,0.4176,0.4173,0.4174,0.4175,0.4175,0.4177,0.4163,0.4175,0.4175,0.4175,0.4175,0.4175,0,0.4216,0.4213,0.4213,0.421,0.4209,0.4204,0.4202,0.4201,0.4202,0.4199,0.4198,0.4197,0.4196,0.4192,0.419,0.4191,0.4189,0.4191,0.4191,0.4191,0.4179,0.4178,0.4193,0.4193,0.4193,0.4193,0.4193,0.4193,0.4224,0.4226,0.4223,0.4223,0.422,0.422,0.4219,0.4217,0.4215,0.4215,0.4214,0.4211,0.4207,0.4206,0.4205,0.4203,0.4203,0.4206,0.4204,0.4193,0.4192,0.419,0.419,0.4206,0.4206,0.4216,0.4216,0.4216]},{"header":{"parameterUnit":"m.s-1","parameterCategory":1,"la1":30.2991,"la2":30.254,"lo1":-89.0895,"lo2":-89.0444,"dy":0.0017,"dx":0.0017,"nx":28,"ny":28,"refTime":"2025-03-31T09:00:00:Z","depth":0,"parameterNumber":3,"parameterNumberName":"V-component_of_WINDS"},"data":[0,0,0,0,0,0,0,0,0,0,0,0,0,0,0,0,0,0,0,0,0,0,0,0,0,0,0,0,0,0,0,0,0,0,0,0,0,0,0,0,0,0,0,0,0,0,0,0,0,0,0,0,0,0,0,0,0,0,4.0484,4.0485,0,4.0572,4.0573,4.0574,4.0567,4.0565,4.0564,4.0563,4.0655,4.0658,4.0662,0,0,0,0,0,0,0,0,0,0,0,0,0,4.0312,4.0315,4.0484,4.0485,4.0486,4.0572,4.0574,4.0575,4.0567,4.0565,4.0564,4.0562,4.0653,4.0658,4.0662,0,0,0,0,0,0,0,0,0,0,0,0,0,4.0392,4.0316,4.0484,4.0493,4.0495,4.0572,4.0574,4.0575,4.0567,4.0565,4.0563,4.0561,4.0652,4.0657,4.0663,4.0738,0,0,4.068,4.0682,0,0,0,0,0,0,0,0,4.0387,4.0398,4.0491,4.0492,4.0494,4.0556,4.0546,4.063,4.0568,4.054,4.0563,4.056,4.0624,4.0632,4.0653,4.0742,4.0746,4.068,4.0684,4.0686,4.0688,0,0,0,0,0,0,0,4.0382,4.0395,4.0519,4.0492,4.0494,4.0493,4.0502,4.0562,4.0592,4.0542,4.0542,4.0552,4.0624,4.0647,4.0655,4.0747,4.068,4.0685,4.0689,4.0691,4.0906,4.0908,0,0,0,0,0,0,4.0374,4.039,4.0516,4.0522,4.0435,4.0498,4.0508,4.0539,4.0591,4.0597,4.0554,4.0551,4.0639,4.0648,4.0658,4.0751,4.0686,4.0691,4.0694,4.0904,4.0906,4.0909,0,0,0,0,0,0,4.037,4.0385,4.0513,4.0456,4.0472,4.0503,4.0537,4.0541,4.0564,4.06,4.0606,4.0571,4.0637,4.065,4.0719,4.0754,4.0694,4.0699,4.0901,4.0904,4.0908,4.0937,0,0,0,0,0,0,4.0365,4.0384,4.0412,4.0457,4.0475,4.0571,4.0539,4.0545,4.0574,4.0571,4.0618,4.0624,4.0637,4.071,4.0724,4.0761,4.0703,4.0898,4.0902,4.0907,4.0933,4.0941,4.0948,0,0,0,0,0,4.0359,4.0416,4.0413,4.0429,4.0511,4.0573,4.0584,4.0597,4.0576,4.0606,4.0629,4.0623,4.0748,4.0717,4.0733,4.0772,4.0896,4.0901,4.0906,4.093,4.094,4.0948,0,0,0,0,0,0,4.0375,4.0422,4.042,4.0493,4.0529,4.0572,4.0609,4.0607,4.065,4.0646,4.0661,4.0672,4.0741,4.0763,4.0728,4.0848,4.0819,4.0828,4.0832,4.0841,4.0849,4.0843,4.0708,0,0,0,0,0,4.0387,4.0433,4.0472,4.0533,4.0552,4.0577,4.0605,4.0612,4.065,4.0666,4.0694,4.0732,4.0781,4.0812,4.0858,4.0936,4.0947,4.097,4.0978,4.0984,4.0992,4.1037,4.1049,4.0927,4.0927,4.0926,0,0,4.0412,4.0444,4.0472,4.0537,4.0566,4.0615,4.059,4.0642,4.0679,4.0674,4.0741,4.0763,4.0807,4.0881,4.0915,4.0901,4.1028,4.0991,4.0995,4.1,4.1044,4.1056,4.1066,4.093,4.093,4.0929,0,0,4.0484,4.0512,4.0567,4.0596,4.0641,4.0658,4.0671,4.0715,4.0729,4.0797,4.0795,4.0839,4.0921,4.0953,4.098,4.1066,4.1062,4.108,4.112,4.1165,4.1174,4.1183,4.1216,4.1227,4.1088,4.1088,4.1088,0,4.051,4.0583,4.0595,4.0648,4.0678,4.0676,4.0733,4.0761,4.0818,4.0839,4.0823,4.0928,4.0957,4.104,4.1061,4.1082,4.1099,4.1076,4.1172,4.118,4.1189,4.122,4.1232,4.109,4.109,4.1089,4.1089,0,4.0614,4.0665,4.0704,4.076,4.0794,4.0848,4.087,4.0903,4.0908,4.0927,4.0997,4.1032,4.1086,4.1106,4.111,4.1191,4.1181,4.1168,4.1139,4.1202,4.1232,4.1244,4.1093,4.1092,4.1092,4.1091,0,0,4.0697,4.0761,4.0775,4.0802,4.0851,4.0891,4.0947,4.1,4.1029,4.1069,4.1117,4.1187,4.1176,4.1207,4.1216,4.1254,4.1323,4.1237,4.1238,4.1253,4.1416,4.1427,4.1441,4.1321,4.1323,4.1325,4.1413,0,4.0775,4.0873,4.0887,4.0974,4.1023,4.1022,4.1071,4.1107,4.1127,4.1172,4.1193,4.1244,4.1224,4.1243,4.1281,4.1307,4.1356,4.13,4.1368,4.137,4.1358,4.1456,4.1467,4.1549,4.1425,4.1427,4.1428,0,4.0879,4.0923,4.1015,4.106,4.1081,4.1125,4.1176,4.1218,4.126,4.1272,4.1307,4.1311,4.1371,4.1339,4.1422,4.1383,4.1412,4.1429,4.1432,4.144,4.1404,4.1469,4.1575,4.1588,4.1447,4.1445,4.1444,0,4.0934,4.1015,4.1082,4.1104,4.1158,4.1189,4.1213,4.1253,4.1285,4.133,4.1351,4.1402,4.1431,4.1471,4.149,4.1464,4.1573,4.1541,4.1586,4.1586,4.161,4.1608,4.1724,4.1625,4.1625,4.1625,4.1625,0,4.1021,4.1077,4.1107,4.1148,4.1213,4.1229,4.1292,4.1315,4.1351,4.1398,4.14,4.1444,4.1465,4.1513,4.1528,4.1596,4.1608,4.1621,4.1625,4.1622,4.1621,4.1642,4.1637,4.1628,4.1627,4.1627,4.1626,0,4.1093,4.1115,4.1187,4.1233,4.1246,4.1292,4.1331,4.1372,4.1391,4.1451,4.1465,4.1497,4.1553,4.1576,4.1644,4.1655,4.1734,4.1732,4.172,4.1721,4.1765,4.1762,4.1901,4.1921,4.1806,4.1807,4.1808,0,4.1147,4.1191,4.1242,4.1273,4.1299,4.1349,4.1382,4.1399,4.1434,4.1486,4.1521,4.1577,4.1623,4.1714,4.1744,4.1797,4.1798,4.1843,4.1806,4.1803,4.1802,4.1799,4.1805,4.185,4.1851,4.1852,4.1853,0,4.1243,4.1252,4.1299,4.1351,4.139,4.1432,4.1472,4.1498,4.1522,4.1561,4.1619,4.1654,4.1725,4.1782,4.1838,4.1864,4.1864,4.1864,4.1878,4.1876,4.1868,4.1876,4.1741,4.1861,4.1861,4.186,4.186,4.1859,4.1309,4.1349,4.1392,4.1445,4.1478,4.1516,4.1557,4.1583,4.1631,4.169,4.1697,4.176,4.1804,4.1878,4.1907,4.1957,4.1945,4.1964,4.1969,4.1974,4.1979,4.1859,4.1967,4.1967,4.1966,4.1966,4.1966,0,4.1407,4.1435,4.1483,4.154,4.1583,4.1578,4.1623,4.166,4.1715,4.1755,4.18,4.1868,4.1924,4.1958,4.2015,4.2049,4.205,4.2063,4.2062,4.2068,4.1985,4.1968,4.2061,4.2061,4.2061,4.2061,4.2061,4.2061,4.1463,4.1531,4.1546,4.1631,4.1659,4.172,4.1746,4.1783,4.1815,4.1891,4.1937,4.1959,4.1998,4.2057,4.2109,4.2118,4.2139,4.2154,4.2162,4.2084,4.2074,4.2064,4.2049,4.2158,4.2158,4.2242,4.2243,4.2243]}]]